Location: Unspecified
(0.0000°N, 0.0000°E)
Time: 23:30:25
(UTC+00:00)

NTS 1 - Pass Details

Date: 18 June 2023
Orbit: 13478 x 13741 km, 124.8° (Epoch: 24 September)

Event Time Altitude Azimuth Distance (km) Brightness Sun altitude
Exits shadow 19:57:23 - 136° (SE) 18,809 ? -26.5°
Reaches altitude 10° 20:12:52 10° 149° (SSE) 17,946 ? -29.9°
Maximum altitude 20:42:12 17° 179° (S) 17,198 ? -36.4°
Drops below altitude 10° 21:11:23 10° 209° (SSW) 17,843 ? -42.6°
Sets 21:30:24 0° 225° (SW) 18,889 ? -46.6°
